| time (UTC) | temp F | wind direction | speed MPH | gust MPH | rain 1hr in | rain 24hr in | rain mn in | humidity % | barometer mb |
| 20260505003723 | 73 | 187 | 14.0 | 26.0 | 0.00 | 0.20 | 0.20 | 55 | 1001.8 |
| 20260505003225 | 73 | 179 | 15.0 | 26.0 | 0.00 | 0.20 | 0.20 | 55 | 1001.4 |
| 20260505002722 | 74 | 188 | 13.0 | 23.0 | 0.00 | 0.20 | 0.20 | 53 | 1001.9 |
| 20260505002223 | 74 | 190 | 12.0 | 23.0 | 0.00 | 0.20 | 0.20 | 52 | 1002.2 |
| 20260505001725 | 74 | 190 | 12.0 | 23.0 | 0.00 | 0.20 | 0.20 | 52 | 1002.1 |
| 20260505001223 | 74 | 191 | 12.0 | 21.0 | 0.00 | 0.20 | 0.20 | 51 | 1002.1 |
| 20260505000723 | 74 | 193 | 12.0 | 21.0 | 0.00 | 0.20 | 0.20 | 52 | 1001.9 |
| 20260505000226 | 74 | 193 | 13.0 | 21.0 | 0.00 | 0.20 | 0.20 | 52 | 1001.7 |
| 20260504235723 | 74 | 191 | 14.0 | 27.0 | 0.00 | 0.20 | 0.20 | 51 | 1001.7 |
| 20260504235223 | 74 | 189 | 15.0 | 28.0 | 0.00 | 0.20 | 0.20 | 51 | 1001.6 |
| 20260504234725 | 75 | 189 | 16.0 | 29.0 | 0.00 | 0.20 | 0.20 | 50 | 1001.6 |
| 20260504234223 | 75 | 191 | 16.0 | 29.0 | 0.00 | 0.20 | 0.20 | 51 | 1001.5 |
| 20260504233724 | 75 | 193 | 16.0 | 30.0 | 0.00 | 0.20 | 0.20 | 50 | 1001.5 |
| 20260504232722 | 75 | 190 | 16.0 | 30.0 | 0.00 | 0.20 | 0.20 | 50 | 1001.7 |
| 20260504232223 | 76 | 194 | 17.0 | 30.0 | 0.00 | 0.20 | 0.20 | 49 | 1001.8 |
| 20260504231724 | 76 | 191 | 16.0 | 26.0 | 0.00 | 0.20 | 0.20 | 49 | 1001.8 |
| 20260504231223 | 76 | 192 | 15.0 | 25.0 | 0.00 | 0.20 | 0.20 | 49 | 1001.9 |
| 20260504230224 | 76 | 190 | 18.0 | 30.0 | 0.00 | 0.20 | 0.20 | 48 | 1002.0 |
| 20260504225223 | 76 | 190 | 19.0 | 34.0 | 0.00 | 0.20 | 0.20 | 49 | 1002.0 |
| 20260504224725 | 76 | 189 | 19.0 | 29.0 | 0.00 | 0.20 | 0.20 | 48 | 1002.0 |
| 20260504224223 | 76 | 188 | 17.0 | 31.0 | 0.00 | 0.20 | 0.20 | 49 | 1002.0 |
| 20260504223224 | 76 | 193 | 18.0 | 29.0 | 0.00 | 0.20 | 0.20 | 50 | 1002.0 |
| 20260504222723 | 75 | 194 | 16.0 | 29.0 | 0.00 | 0.20 | 0.20 | 50 | 1002.1 |
| 20260504222224 | 75 | 195 | 15.0 | 28.0 | 0.00 | 0.20 | 0.20 | 50 | 1002.0 |
| 20260504221725 | 75 | 193 | 15.0 | 28.0 | 0.00 | 0.20 | 0.20 | 50 | 1002.2 |
| 20260504221223 | 75 | 191 | 15.0 | 26.0 | 0.00 | 0.20 | 0.20 | 50 | 1002.0 |
| 20260504220723 | 75 | 190 | 14.0 | 24.0 | 0.00 | 0.20 | 0.20 | 51 | 1002.0 |
| 20260504220224 | 75 | 187 | 15.0 | 34.0 | 0.00 | 0.20 | 0.20 | 53 | 1001.9 |
| 20260504215723 | 74 | 186 | 16.0 | 34.0 | 0.00 | 0.20 | 0.20 | 51 | 1001.8 |
| 20260504215223 | 74 | 185 | 17.0 | 31.0 | 0.00 | 0.20 | 0.20 | 52 | 1001.8 |
| 20260504214725 | 74 | 183 | 18.0 | 31.0 | 0.00 | 0.20 | 0.20 | 52 | 1001.7 |
| 20260504214223 | 74 | 178 | 18.0 | 27.0 | 0.00 | 0.20 | 0.20 | 52 | 1001.8 |
| 20260504213722 | 74 | 179 | 18.0 | 29.0 | 0.00 | 0.20 | 0.20 | 53 | 1001.8 |
| 20260504213225 | 74 | 181 | 18.0 | 33.0 | 0.00 | 0.20 | 0.20 | 52 | 1001.9 |
| 20260504212723 | 74 | 181 | 20.0 | 33.0 | 0.00 | 0.20 | 0.20 | 55 | 1002.0 |
| 20260504212223 | 73 | 183 | 20.0 | 33.0 | 0.00 | 0.20 | 0.20 | 55 | 1002.3 |
| 20260504211724 | 73 | 183 | 19.0 | 33.0 | 0.00 | 0.20 | 0.20 | 55 | 1002.6 |
| 20260504211223 | 73 | 186 | 17.0 | 30.0 | 0.00 | 0.20 | 0.20 | 58 | 1002.8 |
| 20260504210723 | 72 | 184 | 15.0 | 28.0 | 0.00 | 0.20 | 0.20 | 61 | 1002.9 |
| 20260504210224 | 72 | 179 | 16.0 | 25.0 | 0.00 | 0.20 | 0.20 | 61 | 1002.8 |
| 20260504205723 | 72 | 179 | 17.0 | 25.0 | 0.00 | 0.20 | 0.20 | 60 | 1002.7 |
| 20260504205223 | 72 | 176 | 18.0 | 27.0 | 0.00 | 0.20 | 0.20 | 60 | 1002.5 |
| 20260504204223 | 71 | 172 | 20.0 | 31.0 | 0.00 | 0.20 | 0.20 | 60 | 1002.3 |
| 20260504203722 | 71 | 174 | 22.0 | 43.0 | 0.00 | 0.20 | 0.20 | 62 | 1002.2 |
| 20260504203225 | 72 | 177 | 21.0 | 43.0 | 0.00 | 0.20 | 0.20 | 59 | 1002.3 |
| 20260504202723 | 70 | 174 | 22.0 | 36.0 | 0.00 | 0.20 | 0.20 | 62 | 1002.1 |
| 20260504202223 | 69 | 174 | 24.0 | 36.0 | 0.00 | 0.20 | 0.20 | 67 | 1002.3 |
| 20260504201724 | 69 | 177 | 20.0 | 32.0 | 0.00 | 0.20 | 0.20 | 67 | 1002.8 |
| 20260504201222 | 69 | 179 | 16.0 | 30.0 | 0.00 | 0.20 | 0.20 | 69 | 1003.7 |
| 20260504200723 | 68 | 185 | 12.0 | 21.0 | 0.00 | 0.20 | 0.20 | 70 | 1004.7 |
| 20260504200224 | 68 | 183 | 11.0 | 17.0 | 0.00 | 0.20 | 0.20 | 73 | 1005.0 |
| 20260504195723 | 67 | 185 | 9.0 | 16.0 | 0.00 | 0.20 | 0.20 | 74 | 1004.7 |
| 20260504195223 | 67 | 189 | 8.0 | 11.0 | 0.00 | 0.20 | 0.20 | 75 | 1004.9 |
| 20260504194724 | 67 | 186 | 7.0 | 11.0 | 0.00 | 0.20 | 0.20 | 75 | 1004.9 |
| 20260504194223 | 67 | 193 | 6.0 | 9.0 | 0.00 | 0.20 | 0.20 | 76 | 1004.9 |
| 20260504193722 | 67 | 185 | 5.0 | 10.0 | 0.00 | 0.20 | 0.20 | 76 | 1005.3 |
| 20260504193225 | 67 | 179 | 5.0 | 10.0 | 0.00 | 0.20 | 0.20 | 76 | 1005.3 |
| 20260504192723 | 67 | 184 | 3.0 | 6.0 | 0.00 | 0.20 | 0.20 | 76 | 1005.5 |
| 20260504191725 | 68 | 217 | 0.0 | 3.0 | 0.00 | 0.20 | 0.20 | 70 | 1006.0 |
| 20260504190722 | 69 | 226 | 1.0 | 3.0 | 0.00 | 0.20 | 0.20 | 69 | 1006.5 |
| 20260504190224 | 69 | 226 | 2.0 | 4.0 | 0.00 | 0.20 | 0.20 | 69 | 1006.4 |
| 20260504185222 | 69 | 228 | 4.0 | 8.0 | 0.00 | 0.20 | 0.20 | 68 | 1006.2 |
| 20260504184725 | 69 | 229 | 4.0 | 9.0 | 0.00 | 0.20 | 0.20 | 67 | 1006.2 |
| 20260504183723 | 70 | 221 | 6.0 | 14.0 | 0.00 | 0.20 | 0.20 | 67 | 1005.5 |
| 20260504182723 | 70 | 208 | 10.0 | 20.0 | 0.00 | 0.20 | 0.20 | 66 | 1005.3 |
| 20260504182222 | 70 | 201 | 12.0 | 21.0 | 0.00 | 0.20 | 0.20 | 66 | 1004.7 |
| 20260504181724 | 70 | 190 | 10.0 | 21.0 | 0.00 | 0.20 | 0.20 | 64 | 1004.0 |
| 20260504181222 | 70 | 174 | 11.0 | 20.0 | 0.00 | 0.20 | 0.20 | 65 | 1003.3 |
| 20260504180722 | 70 | 183 | 15.0 | 25.0 | 0.00 | 0.20 | 0.20 | 67 | 1003.8 |
| 20260504180224 | 70 | 188 | 17.0 | 28.0 | 0.00 | 0.20 | 0.20 | 66 | 1004.2 |
| 20260504175723 | 70 | 192 | 15.0 | 28.0 | 0.00 | 0.20 | 0.20 | 65 | 1004.4 |
| 20260504175222 | 70 | 198 | 13.0 | 23.0 | 0.00 | 0.20 | 0.20 | 65 | 1004.8 |
| 20260504174725 | 70 | 203 | 12.0 | 22.0 | 0.00 | 0.20 | 0.20 | 65 | 1005.0 |
| 20260504173723 | 70 | 202 | 12.0 | 22.0 | 0.00 | 0.20 | 0.20 | 64 | 1005.0 |
| 20260504173224 | 70 | 199 | 12.0 | 22.0 | 0.00 | 0.20 | 0.20 | 65 | 1004.9 |
| 20260504172723 | 71 | 196 | 14.0 | 24.0 | 0.00 | 0.20 | 0.20 | 64 | 1005.0 |
| 20260504172223 | 71 | 198 | 14.0 | 24.0 | 0.00 | 0.20 | 0.20 | 63 | 1004.9 |
| 20260504171725 | 71 | 202 | 13.0 | 21.0 | 0.00 | 0.20 | 0.20 | 63 | 1004.9 |
| 20260504171222 | 71 | 200 | 14.0 | 26.0 | 0.00 | 0.20 | 0.20 | 64 | 1005.0 |
| 20260504170723 | 71 | 195 | 15.0 | 26.0 | 0.00 | 0.20 | 0.20 | 63 | 1004.9 |
| 20260504170224 | 71 | 193 | 14.0 | 24.0 | 0.00 | 0.20 | 0.20 | 64 | 1005.0 |
| 20260504160224 | 71 | 199 | 12.0 | 20.0 | 0.00 | 0.20 | 0.20 | 63 | 1006.2 |
| 20260504150722 | 69 | 209 | 13.0 | 21.0 | 0.00 | 0.20 | 0.20 | 65 | 1006.2 |
| 20260504150225 | 69 | 208 | 13.0 | 21.0 | 0.00 | 0.20 | 0.20 | 68 | 1006.2 |
| 20260504141222 | 67 | 203 | 12.0 | 22.0 | 0.00 | 0.20 | 0.20 | 72 | 1006.4 |
| 20260504140723 | 66 | 204 | 12.0 | 20.0 | 0.00 | 0.20 | 0.20 | 74 | 1006.6 |
| 20260504140224 | 66 | 204 | 13.0 | 22.0 | 0.00 | 0.20 | 0.20 | 73 | 1006.6 |
| 20260504130722 | 61 | 195 | 10.0 | 18.0 | 0.00 | 0.20 | 0.20 | 81 | 1007.0 |
| 20260504130224 | 61 | 193 | 10.0 | 17.0 | 0.00 | 0.20 | 0.20 | 81 | 1007.1 |
| 20260504120224 | 59 | 184 | 10.0 | 15.0 | 0.00 | 0.20 | 0.20 | 84 | 1007.3 |
| 20260504110224 | 58 | 183 | 9.0 | 14.0 | 0.00 | 0.21 | 0.20 | 86 | 1007.0 |
| 20260504100223 | 56 | 162 | 2.0 | 7.0 | 0.01 | 0.21 | 0.20 | 87 | 1007.3 |
| 20260504081724 | 57 | 185 | 5.0 | 10.0 | 0.08 | 0.20 | 0.19 | 87 | 1007.7 |
| 20260504080722 | 57 | 186 | 6.0 | 12.0 | 0.09 | 0.20 | 0.19 | 87 | 1007.4 |
| 20260504080223 | 57 | 190 | 5.0 | 12.0 | 0.09 | 0.20 | 0.19 | 87 | 1007.7 |
| 20260504070224 | 59 | 61 | 6.0 | 13.0 | 0.10 | 0.11 | 0.10 | 81 | 1007.1 |
| 20260504060223 | 61 | 229 | 4.0 | 11.0 | 0.00 | 0.01 | 0.00 | 70 | 1008.7 |
| 20260504050223 | 60 | 186 | 2.0 | 6.0 | 0.00 | 0.01 | 0.01 | 67 | 1007.7 |
| 20260504044723 | 61 | 188 | 3.0 | 7.0 | 0.00 | 0.01 | 0.01 | 66 | 1008.1 |
| 20260504044222 | 61 | 189 | 2.0 | 7.0 | 0.00 | 0.01 | 0.01 | 65 | 1008.3 |
| 20260504043722 | 61 | 185 | 1.0 | 4.0 | 0.00 | 0.01 | 0.01 | 64 | 1008.3 |
| 20260504043224 | 62 | 185 | 0.0 | 4.0 | 0.00 | 0.01 | 0.01 | 63 | 1008.4 |
| 20260504042722 | 62 | 186 | 0.0 | 3.0 | 0.00 | 0.01 | 0.01 | 62 | 1008.4 |
| 20260504042222 | 62 | 205 | 0.0 | 2.0 | 0.00 | 0.01 | 0.01 | 61 | 1008.5 |
| 20260504041723 | 63 | 251 | 0.0 | 4.0 | 0.00 | 0.01 | 0.01 | 61 | 1008.4 |
| 20260504041222 | 63 | 228 | 0.0 | 5.0 | 0.00 | 0.01 | 0.01 | 60 | 1008.6 |
| 20260504040722 | 63 | 209 | 1.0 | 6.0 | 0.00 | 0.01 | 0.01 | 60 | 1008.7 |
| 20260504040223 | 63 | 192 | 4.0 | 12.0 | 0.00 | 0.01 | 0.01 | 60 | 1008.6 |
| 20260504035722 | 63 | 187 | 7.0 | 16.0 | 0.00 | 0.01 | 0.01 | 60 | 1008.5 |
| 20260504035221 | 63 | 186 | 9.0 | 16.0 | 0.00 | 0.01 | 0.01 | 60 | 1008.6 |
| 20260504034724 | 63 | 182 | 8.0 | 13.0 | 0.00 | 0.01 | 0.01 | 60 | 1008.5 |
| 20260504034221 | 63 | 179 | 9.0 | 14.0 | 0.00 | 0.01 | 0.01 | 59 | 1008.6 |
| 20260504033223 | 64 | 178 | 8.0 | 14.0 | 0.00 | 0.01 | 0.01 | 59 | 1008.8 |
| 20260504032222 | 64 | 177 | 9.0 | 18.0 | 0.00 | 0.01 | 0.01 | 58 | 1008.9 |
| 20260504031724 | 64 | 176 | 9.0 | 15.0 | 0.00 | 0.01 | 0.01 | 58 | 1008.8 |
| 20260504031221 | 64 | 179 | 9.0 | 15.0 | 0.00 | 0.01 | 0.01 | 58 | 1008.7 |
| 20260504030722 | 64 | 183 | 10.0 | 18.0 | 0.00 | 0.01 | 0.01 | 58 | 1008.7 |
| 20260504030223 | 64 | 183 | 11.0 | 19.0 | 0.00 | 0.01 | 0.01 | 57 | 1008.6 |
| 20260504025722 | 64 | 185 | 11.0 | 19.0 | 0.00 | 0.01 | 0.01 | 58 | 1008.3 |
| 20260504025222 | 64 | 187 | 11.0 | 18.0 | 0.00 | 0.01 | 0.01 | 58 | 1008.3 |
| 20260504024723 | 64 | 185 | 12.0 | 21.0 | 0.00 | 0.01 | 0.01 | 57 | 1008.2 |
| 20260504024222 | 64 | 185 | 11.0 | 21.0 | 0.00 | 0.01 | 0.01 | 58 | 1008.1 |
| 20260504023223 | 64 | 186 | 11.0 | 19.0 | 0.00 | 0.01 | 0.01 | 57 | 1008.2 |
| 20260504022222 | 64 | 186 | 10.0 | 15.0 | 0.00 | 0.01 | 0.01 | 57 | 1008.5 |
| 20260504021723 | 64 | 183 | 10.0 | 16.0 | 0.00 | 0.01 | 0.01 | 57 | 1008.4 |
| 20260504021222 | 64 | 181 | 10.0 | 16.0 | 0.00 | 0.01 | 0.01 | 57 | 1008.4 |
| 20260504020722 | 64 | 182 | 10.0 | 16.0 | 0.00 | 0.01 | 0.01 | 57 | 1008.5 |
| 20260504020223 | 64 | 182 | 9.0 | 16.0 | 0.00 | 0.01 | 0.01 | 57 | 1008.4 |
| 20260504015722 | 64 | 182 | 9.0 | 17.0 | 0.00 | 0.01 | 0.01 | 56 | 1008.5 |
| 20260504015221 | 64 | 183 | 9.0 | 18.0 | 0.00 | 0.01 | 0.01 | 56 | 1008.5 |
| 20260504014724 | 64 | 182 | 10.0 | 18.0 | 0.00 | 0.01 | 0.01 | 56 | 1008.4 |
| 20260504014221 | 64 | 182 | 10.0 | 17.0 | 0.00 | 0.01 | 0.01 | 56 | 1008.5 |
| 20260504013722 | 64 | 181 | 10.0 | 17.0 | 0.00 | 0.01 | 0.01 | 56 | 1008.4 |
| 20260504013223 | 65 | 181 | 11.0 | 20.0 | 0.00 | 0.01 | 0.01 | 56 | 1008.3 |
| 20260504012722 | 65 | 184 | 10.0 | 20.0 | 0.00 | 0.01 | 0.01 | 56 | 1008.2 |
| 20260504012221 | 65 | 184 | 10.0 | 17.0 | 0.00 | 0.01 | 0.01 | 56 | 1008.2 |
| 20260504011221 | 65 | 182 | 9.0 | 16.0 | 0.00 | 0.01 | 0.01 | 55 | 1008.5 |
| 20260504010722 | 65 | 182 | 10.0 | 17.0 | 0.00 | 0.01 | 0.01 | 55 | 1008.3 |
| 20260504010223 | 65 | 182 | 10.0 | 17.0 | 0.00 | 0.01 | 0.01 | 55 | 1008.2 |
| 20260504005222 | 65 | 186 | 10.0 | 17.0 | 0.00 | 0.01 | 0.01 | 54 | 1008.4 |
| 20260504004723 | 66 | 186 | 11.0 | 17.0 | 0.00 | 0.01 | 0.01 | 54 | 1008.3 |
| 20260504004222 | 66 | 184 | 11.0 | 17.0 | 0.00 | 0.01 | 0.01 | 54 | 1008.4 |